Regional Weather Roundup
Issued by NWS

Home | Current Version | Previous Version | Graphics & Text | Print | Product List | Glossary On
Versions: 1 2 3 4 5 6 7 8 9 10 11 12 13 14 15 16 17 18 19 20 21 22 23 24 25 26 27 28 29 30 31 32 33 34 35 36 37 38 39 40 41 42 43 44 45 46 47 48 49 50
838
ASUS43 KIND 231059
RWRIN

WEATHER ROUNDUP FOR INDIANA
NATIONAL WEATHER SERVICE INDIANAPOLIS IN
700 AM EDT THU MAR 23 2017

NOTE: "FAIR" INDICATES FEW OR NO CLOUDS BELOW 12,000 FEET WITH NO
SIGNIFICANT WEATHER AND/OR OBSTRUCTIONS TO VISIBILITY.

* - STATION DOES NOT REPORT WEATHER SUCH AS PRECIPITATION OR FOG.

+ - STATION NOT QUALITY CONTROLLED BY THE NATIONAL WEATHER SERVICE.
    USE DATA WITH CAUTION...ESPECIALLY DEWPOINT AND RELATIVE
    HUMIDITY OBSERVATIONS.

INZ001>003-010>013-019-020-231200-
NORTHWEST INDIANA

CITY           SKY/WX    TMP DP  RH WIND       PRES   REMARKS
KNOX *+        CLOUDY    28   3  34 CALM      30.44F
MONTICELLO +   PTCLDY    28  19  66 E7        30.42F WCI  21

$$

LMZ046-743>745-231200-
SOUTHERN LAKE MICHIGAN

STATION/POSITION TIME  TEMP    WIND        PRES    WAVE
                       AIR SEA DIR/SP/G            HT
                 (UTC) (F)     (DEG/KT/KT) (MB)    (FT)
BURNS HARBOR     1040   30     140/  9/ 17 1030.8S
MICHIGAN CITY    1030   29     120/  8/ 10   N/A

$$

INZ004-005-014>016-021>024-231200-
NORTH CENTRAL INDIANA

CITY           SKY/WX    TMP DP  RH WIND       PRES   REMARKS
ELKHART        PTCLDY    27  16  63 SE6       30.48  WCI  20
GOSHEN         MOCLDY    25  14  63 SE8       30.47R WCI  16
SOUTH BEND     PTCLDY    25  17  72 E9        30.46R WCI  15

$$

INZ006>009-017-018-025>027-231200-
NORTHEAST INDIANA

CITY           SKY/WX    TMP DP  RH WIND       PRES   REMARKS
ANGOLA *+      CLEAR     21  12  68 SE7       30.47S WCI  13
FORT WAYNE     CLOUDY    24  15  68 E8        30.48S WCI  15
KENDALLVILLE + CLOUDY    23  15  69 SE8       30.47S WCI  14

$$

INZ028-029-035-036-043>045-051>053-231200-
WEST CENTRAL INDIANA

CITY           SKY/WX    TMP DP  RH WIND       PRES   REMARKS
CRAWFORDSVL +  CLOUDY    26  21  83 E7        30.40S WCI  18
LAFAYETTE      CLOUDY    26  21  81 E8        30.42S WCI  18
TERRE HAUTE    CLOUDY    31  20  63 E7        30.40R WCI  24

$$

INZ030>032-037>040-046>048-054>057-064-065-231200-
CENTRAL INDIANA

CITY           SKY/WX    TMP DP  RH WIND       PRES   REMARKS
COLUMBUS       CLEAR     28  23  80 CALM      30.43
GREENWOOD *+   CLOUDY    29  21  71 E8        30.41S WCI  21
INDIANAPOLIS   CLOUDY    29  19  66 E10       30.41S WCI  20
-EAGLE CREEK   CLOUDY    29  18  63 E8        30.41S WCI  21
KOKOMO +       PTCLDY    26  20  77 E10       30.44S WCI  16
SHELBYVILLE    CLOUDY    29  19  66 E7        30.43R WCI  22

$$

INZ033-034-041-042-049-050-058-059-231200-
EAST CENTRAL INDIANA

CITY           SKY/WX    TMP DP  RH WIND       PRES   REMARKS
MUNCIE         PTCLDY    27  19  72 E7        30.44S WCI  19
RICHMOND +     CLOUDY    25  19  80 E12       30.43S WCI  14

$$

INZ060-061-067>069-081>083-085>088-231200-
SOUTHWEST INDIANA

CITY           SKY/WX    TMP DP  RH WIND       PRES   REMARKS
EVANSVILLE     CLOUDY    35  22  58 E8        30.36S WCI  29
HUNTINGBURG *+ PTCLDY    33  20  58 E7        30.37R WCI  27

$$

INZ062-063-066-070>080-084-089>092-231200-
SOUTH CENTRAL AND SOUTHEAST INDIANA

CITY           SKY/WX    TMP DP  RH WIND       PRES   REMARKS
BLOOMINGTON    CLEAR     30  18  60 E9        30.38S WCI  22
MADISON *+     PTCLDY    32  18  55 E7        30.44R WCI  26
SEYMOUR +      CLOUDY    30  21  69 E7        30.41S WCI  23

$$





USA.gov is the U.S. government's official web portal to all federal, state and local government web resources and services.